Theta_e
352 354 352 355 359 358 353 349 323 331 329 317 318 321 321 333 331 328 328 332 327 332 334 334 334 333 331 327 328 330 331 327 327 320 320 334 346 349 348 353 355 356 358 361 359 363 363 360 359 360 362 363 363 362 362 361 362 362 361 361 360 360 360 359 360 361 360 359 358 358 360 361 362 360 361 358 361 358 360 360 364 364 365 364 362 364 364 364 363 363 363 363 363 364 363 363 363
354 359 360 360 359 359 340 348 328 322 321 318 320 325 326 330 331 329 328 330 329 332 334 334 331 331 335 333 333 334 331 333 336 333 336 341 347 348 351 350 355 353 356 361 363 362 360 362 360 361 362 362 362 362 362 362 361 361 361 361 359 360 360 361 361 361 362 361 360 362 362 363 359 358 358 358 361 360 361 364 365 365 365 364 364 364 363 363 364 363 365 363 364 363 362 363 363
357 357 357 359 357 348 345 342 321 319 315 312 319 324 331 326 327 330 330 331 333 333 333 333 335 335 332 332 327 328 325 337 337 337 338 344 342 347 347 354 352 353 355 361 361 363 363 363 360 361 362 363 363 362 361 362 361 361 361 361 360 360 360 360 360 361 361 362 361 362 363 362 361 360 360 361 363 360 362 365 364 362 363 365 364 363 363 362 362 363 364 364 362 362 362 362 362
359 359 355 354 343 349 334 334 326 317 314 315 320 327 328 328 329 331 333 334 333 333 333 332 330 339 333 326 327 334 333 333 338 338 337 340 343 348 350 351 354 355 356 358 360 361 362 362 361 361 361 362 362 362 361 360 361 361 361 361 360 360 360 360 360 361 361 362 359 358 360 359 363 362 362 363 363 363 364 364 364 363 365 365 364 364 362 363 364 363 363 364 363 363 363 362 362
356 359 358 352 345 334 331 327 323 320 315 318 319 328 330 330 331 333 333 335 333 334 334 334 333 334 337 334 334 330 329 335 337 340 339 344 348 350 351 350 351 354 357 356 359 360 362 363 363 362 361 361 361 362 360 360 361 361 361 358 359 359 361 361 360 359 360 360 358 355 356 358 357 363 363 363 363 364 363 362 362 363 364 364 364 363 363 362 362 363 363 364 364 363 363 363 363
356 355 359 356 340 350 338 323 319 319 324 326 321 327 330 333 332 333 333 333 333 334 335 332 329 330 329 333 338 333 338 331 337 340 344 344 350 351 350 353 352 353 354 357 360 361 363 363 362 361 361 361 362 362 361 361 361 361 361 359 358 359 360 361 360 359 358 357 356 356 357 358 361 362 363 364 363 363 363 362 360 363 363 364 364 364 364 361 363 363 363 363 363 363 363 363 363
351 349 351 350 345 344 327 319 318 321 325 330 327 330 332 332 333 332 332 332 333 335 337 330 332 330 327 333 335 338 341 341 340 343 346 349 352 351 352 353 354 353 355 356 358 360 362 363 362 362 361 362 361 360 360 360 361 361 361 359 359 359 359 359 358 357 357 358 358 359 356 358 360 363 363 364 364 363 362 362 361 363 364 364 363 363 363 364 363 363 363 362 363 363 363 363 363
355 344 342 334 331 334 324 321 321 324 326 332 332 331 334 334 335 334 331 330 328 330 334 334 332 329 330 336 328 342 345 346 346 349 348 350 351 352 353 353 352 353 355 357 361 362 367 362 362 362 361 360 360 359 360 360 361 361 362 359 359 359 358 358 357 357 358 359 359 360 358 359 360 362 363 362 362 362 362 364 364 363 364 363 363 363 363 364 364 363 364 363 364 363 364 362 362
352 346 348 334 325 330 324 320 322 330 329 334 335 338 338 338 337 335 334 335 334 335 332 332 333 327 328 331 331 340 342 347 349 350 349 349 349 352 352 352 352 353 355 357 359 360 362 362 361 361 361 360 359 359 360 360 361 362 362 361 358 358 358 359 358 358 358 359 359 357 355 355 359 359 361 362 362 361 361 361 362 363 362 363 363 363 363 363 363 364 364 363 363 363 364 362 362
346 347 333 331 328 320 319 320 321 325 328 332 333 336 337 339 338 338 334 333 334 334 333 336 335 329 329 326 331 337 340 346 346 347 348 348 351 352 351 352 353 353 355 356 356 358 361 367 362 362 360 360 360 360 361 362 361 361 361 359 358 358 358 358 358 358 359 360 361 358 353 352 357 360 361 361 361 361 361 362 362 362 361 361 362 361 363 363 363 363 363 363 363 363 363 363 363
335 346 344 327 322 319 318 321 323 328 330 333 335 339 340 341 339 336 337 336 338 333 334 334 329 328 330 331 334 342 345 344 344 342 347 349 350 351 351 354 354 354 354 355 358 360 363 364 365 363 363 362 362 361 361 362 361 361 360 359 359 358 358 359 359 359 361 360 358 357 357 352 354 359 359 360 362 362 361 361 362 362 362 362 361 361 362 362 363 362 363 363 362 363 363 363 363
336 336 337 324 322 319 322 322 325 326 331 332 331 339 341 340 338 335 335 333 336 332 331 335 330 335 329 330 331 339 342 344 344 346 349 350 351 352 352 353 353 354 356 357 358 359 363 366 366 365 363 362 361 362 361 362 360 360 360 360 359 358 359 360 360 360 360 360 356 355 355 351 355 360 361 361 361 362 361 361 361 362 361 360 360 361 362 363 362 363 362 363 362 361 362 363 362
338 337 329 325 322 325 325 324 324 327 328 330 333 339 342 338 336 336 336 336 334 331 331 338 336 335 327 329 335 338 339 344 347 348 348 350 351 351 352 351 352 354 356 358 358 360 363 365 364 365 363 361 361 360 360 360 359 358 358 359 359 359 359 359 360 360 360 357 354 357 355 354 356 361 362 362 361 361 360 359 360 361 361 359 359 361 361 362 362 362 363 363 362 362 362 363 362
339 337 333 323 331 322 327 322 325 323 326 332 338 341 342 339 338 338 335 333 335 335 337 338 337 337 331 331 332 334 339 345 347 348 349 350 350 350 349 349 351 352 356 357 359 359 359 361 358 362 364 364 363 361 360 359 358 359 359 359 359 359 359 358 360 360 360 356 356 355 356 356 356 360 361 361 362 361 361 361 362 363 362 362 361 361 360 361 361 362 362 363 362 363 362 362 362
341 345 337 326 324 324 328 320 324 323 322 334 339 339 341 343 339 337 338 335 338 340 339 341 339 333 325 328 328 334 339 344 346 349 349 348 349 349 349 349 351 352 353 354 356 357 357 362 356 362 362 362 363 361 362 360 358 357 358 358 359 359 357 357 357 359 358 358 357 358 356 359 357 360 362 362 362 362 361 360 361 362 362 362 361 361 362 362 362 362 362 362 362 362 362 362 362
347 341 336 325 321 322 323 324 324 324 324 335 338 342 339 339 342 339 341 342 334 337 336 331 339 336 332 331 333 339 342 344 347 349 348 348 349 348 348 349 349 350 350 351 354 357 358 360 361 361 361 360 361 360 362 362 359 357 358 358 358 358 358 355 353 355 355 358 357 355 357 360 360 361 362 361 362 363 362 362 361 361 361 361 362 362 362 362 361 362 362 362 362 363 363 363 363
346 344 324 324 319 322 324 330 324 321 330 333 339 340 335 335 344 343 343 341 332 332 336 333 333 336 332 334 340 342 344 346 349 348 347 347 348 345 347 348 349 348 348 353 358 357 357 359 362 361 362 361 360 361 359 360 360 358 359 359 358 358 357 353 353 352 354 356 356 356 358 359 359 360 361 362 361 363 362 362 362 362 361 361 361 360 361 361 361 361 362 363 363 363 363 363 363
342 333 327 325 323 321 328 326 328 331 333 333 337 341 338 334 338 338 343 338 337 335 335 334 336 337 338 341 343 344 345 346 346 344 344 343 345 342 344 345 345 345 348 353 358 357 357 359 361 360 361 362 360 359 360 361 360 360 363 362 360 358 358 355 355 355 356 358 354 357 362 360 360 362 361 360 363 362 362 362 363 362 361 360 360 361 361 361 361 362 363 364 362 362 362 363 363
334 331 329 321 324 329 336 334 334 333 333 336 336 341 340 337 336 337 335 334 334 332 332 334 334 336 340 341 342 343 344 344 344 343 341 341 342 340 342 344 346 345 348 352 355 355 357 357 358 358 360 362 360 359 359 362 360 363 363 357 359 359 356 360 356 355 358 361 359 363 365 365 361 361 363 360 361 361 362 363 363 363 362 361 361 361 361 361 362 363 363 363 363 362 363 361 357
337 326 324 325 332 333 339 339 338 341 340 336 338 339 340 340 340 340 335 332 334 329 328 331 332 331 334 338 341 341 342 343 343 342 340 341 342 340 342 339 345 348 349 352 351 356 357 356 357 358 359 361 359 357 359 362 363 362 361 361 357 353 355 355 352 354 354 354 357 360 364 362 359 359 359 359 362 360 363 364 364 362 363 363 362 362 362 361 362 362 362 362 362 361 360 360 353
333 328 326 328 334 333 337 345 341 342 344 340 340 340 339 340 342 338 337 331 332 332 332 332 332 332 334 337 338 339 340 340 341 340 339 340 339 340 341 344 345 348 351 352 352 354 357 357 356 358 360 360 359 356 357 356 356 358 359 359 359 359 353 358 355 355 354 354 357 360 361 360 362 361 362 363 362 361 361 363 364 361 362 362 362 359 360 359 361 358 359 360 359 359 358 355 354
328 328 330 332 335 330 340 342 344 344 343 343 341 337 337 344 341 338 337 331 328 332 334 335 334 335 335 335 337 339 338 339 338 338 339 338 337 341 343 345 348 350 352 351 352 355 356 356 356 357 357 359 359 358 355 358 357 359 360 361 360 361 361 359 358 355 355 356 359 362 361 360 360 362 360 361 359 362 361 360 361 361 356 359 364 358 356 360 361 354 357 357 358 353 352 354 352
322 333 332 335 336 333 343 344 347 343 344 341 338 340 344 341 339 340 337 336 337 338 335 336 336 337 337 338 337 337 337 338 338 339 338 336 339 343 344 346 346 348 347 352 354 355 355 356 357 356 356 359 360 359 359 360 359 358 358 359 360 361 361 360 356 358 355 356 360 361 362 356 357 360 361 360 360 362 359 359 359 357 355 356 357 355 356 358 355 354 355 355 353 349 346 346 354
325 324 329 337 336 339 341 340 345 342 343 340 343 344 340 339 332 339 337 341 339 340 338 337 337 338 338 336 337 336 338 339 338 340 336 338 342 343 345 345 347 349 351 351 352 354 354 354 359 360 361 359 361 360 360 359 358 356 358 359 357 356 358 355 353 354 353 355 358 359 365 361 358 359 359 361 361 358 358 360 359 352 353 354 356 356 356 355 355 355 359 354 353 355 350 353 349
324 326 332 333 336 341 340 340 340 343 344 346 338 335 335 336 335 337 333 340 337 337 337 337 336 337 337 336 336 337 338 339 339 337 338 343 345 346 347 348 348 348 349 350 352 352 353 353 358 355 360 360 361 358 357 358 358 358 356 358 356 358 358 353 355 357 355 355 357 358 360 359 358 358 358 358 359 358 358 355 353 351 355 358 359 355 359 359 357 354 355 353 356 359 354 349 352
327 328 330 337 335 339 341 343 343 343 346 344 338 334 337 339 339 331 338 338 338 335 337 337 337 335 335 335 336 337 338 339 337 337 342 345 346 345 346 348 348 346 348 351 352 353 353 352 356 357 359 360 358 359 360 359 359 358 358 359 359 359 359 361 354 356 358 356 354 354 357 362 359 361 361 360 359 358 355 354 355 356 356 358 358 359 358 356 355 354 355 358 355 358 355 351 355
328 330 335 337 337 338 343 342 345 346 343 340 335 331 335 340 336 327 338 341 338 335 336 337 336 334 334 335 337 338 339 337 337 341 345 346 346 345 346 348 347 348 349 349 351 353 353 353 355 358 360 362 360 356 360 360 360 358 360 360 359 357 360 359 358 351 353 356 357 353 355 359 359 361 359 360 359 355 356 356 354 358 357 359 360 359 362 361 359 358 356 357 360 360 357 353 355
329 334 336 340 340 340 342 343 342 343 335 339 336 331 332 334 335 335 336 340 338 334 334 336 336 336 334 335 337 340 339 338 340 343 343 345 344 346 346 348 348 347 348 349 352 355 350 353 354 357 359 360 360 358 362 361 360 360 361 359 358 359 360 361 361 356 355 356 358 354 361 363 362 358 361 358 357 354 354 356 356 358 357 357 360 357 360 361 362 357 358 359 360 362 360 355 359
333 334 329 335 337 338 341 339 340 341 334 341 337 328 325 325 328 337 341 346 337 334 334 335 335 335 335 337 338 338 337 339 341 343 344 346 347 347 347 349 349 348 350 351 351 352 350 352 354 357 358 359 358 356 358 360 360 359 360 359 359 357 358 356 355 356 360 361 361 361 367 366 364 361 360 359 356 352 354 356 357 359 359 361 361 360 361 361 359 355 358 361 360 363 356 354 351
333 332 333 332 331 329 337 342 340 336 336 337 334 316 319 326 333 335 341 343 337 333 333 334 335 334 336 337 338 338 337 339 340 343 345 347 348 348 348 349 350 350 351 353 351 350 351 353 353 356 357 357 356 355 358 357 359 359 360 359 361 360 358 356 356 359 361 362 364 365 366 365 361 362 362 358 356 355 357 359 358 359 360 363 362 360 357 358 356 357 355 358 355 359 353 355 349
326 328 329 321 319 321 336 338 337 332 337 336 334 319 320 326 333 338 341 343 340 333 332 334 334 334 337 336 337 337 337 340 341 341 343 346 347 349 349 350 351 352 352 351 350 351 351 352 353 354 357 356 356 356 356 357 358 358 357 358 359 359 359 358 358 359 359 360 362 364 365 365 364 363 363 359 356 359 357 356 357 357 362 362 358 359 359 360 358 358 357 357 357 354 351 350 352
325 319 316 323 319 321 330 339 336 330 336 339 335 321 320 325 334 338 341 342 339 334 333 333 334 335 336 337 336 338 338 340 341 341 343 345 348 349 350 350 352 351 351 352 352 352 351 351 354 353 356 356 358 357 358 358 356 357 357 359 360 361 356 356 356 356 358 357 359 361 364 365 363 365 364 363 356 356 353 356 357 363 361 363 361 360 364 359 359 359 360 359 356 353 354 345 352
321 317 314 316 320 322 326 332 337 338 336 339 330 320 322 325 335 337 338 337 339 332 332 334 333 335 335 336 336 338 340 341 340 341 342 345 348 349 350 351 351 352 352 351 352 353 352 349 353 351 354 354 356 356 358 359 360 359 358 357 357 360 356 356 355 357 357 357 358 358 362 362 364 365 366 367 360 358 358 357 355 361 363 365 359 360 359 359 357 349 361 361 362 360 352 346 343
315 318 314 319 317 317 316 330 335 338 335 327 331 324 325 330 335 336 336 338 337 333 333 333 334 335 336 337 336 336 339 339 339 341 341 345 347 350 350 354 351 353 353 352 352 352 351 347 352 351 355 356 356 357 358 357 358 358 357 357 359 357 354 354 355 355 356 355 357 357 361 360 363 364 365 367 370 359 359 362 360 363 365 364 365 360 360 357 359 358 359 361 361 360 355 350 347
312 314 315 315 318 319 317 319 324 332 330 326 326 326 326 329 333 334 337 340 338 335 331 333 333 334 335 335 337 336 337 338 339 342 341 345 347 349 350 353 352 354 352 353 353 353 354 350 355 353 354 356 356 359 360 359 357 358 356 357 357 357 358 356 354 355 354 355 354 359 362 360 362 363 365 368 367 359 356 359 363 365 366 365 363 360 357 362 364 362 362 360 361 358 356 354 351
313 314 314 317 314 317 318 322 331 329 325 324 323 322 326 327 330 335 335 338 338 338 335 334 334 334 335 334 334 336 336 337 341 343 344 344 347 349 350 352 352 353 353 354 356 354 356 355 355 353 355 355 357 358 358 354 355 355 352 354 354 356 357 354 356 354 354 354 356 357 360 359 360 362 364 366 368 362 359 359 363 361 365 364 362 359 357 358 359 360 359 356 359 357 358 355 351
316 315 314 317 315 319 321 321 324 330 326 323 325 326 328 326 328 331 333 338 338 338 336 334 335 334 333 334 333 335 336 337 341 341 344 344 346 350 350 353 352 352 356 353 355 354 354 356 356 352 353 356 357 355 355 352 352 353 354 350 350 352 354 354 352 354 353 356 354 355 360 357 359 362 365 365 365 364 364 363 363 365 365 365 363 361 361 363 362 362 358 364 357 355 353 351 345
313 311 311 313 315 314 317 321 323 329 322 321 324 324 323 325 329 331 333 335 333 336 336 336 333 334 334 335 334 335 336 339 341 339 342 343 346 348 350 352 353 351 355 352 355 355 355 356 355 353 353 355 355 355 355 354 355 354 351 349 350 352 353 351 354 354 354 354 356 358 358 357 360 362 364 368 368 364 364 361 363 368 365 365 367 366 367 363 363 362 358 359 357 350 352 349 347
313 310 309 310 313 317 318 319 321 326 325 319 317 319 325 327 327 330 333 333 335 338 338 337 337 337 337 336 336 337 336 336 339 339 341 342 345 347 350 351 352 353 354 352 356 356 355 356 356 356 354 354 353 355 356 356 355 356 354 352 351 351 354 356 354 354 355 355 356 356 360 359 361 364 365 365 364 366 364 365 363 364 365 366 364 364 363 361 360 357 359 356 359 354 350 351 351
309 309 307 306 313 312 311 320 324 327 323 319 319 319 324 331 332 335 334 335 337 340 341 341 341 338 337 336 338 337 336 336 337 338 338 341 344 347 349 350 352 352 354 352 354 355 354 358 358 357 357 356 355 356 358 358 358 359 360 357 358 355 353 357 358 358 356 352 351 352 363 362 359 363 364 361 364 366 368 365 363 363 367 369 365 364 363 359 360 357 359 361 360 354 348 349 350
309 308 308 309 311 312 312 317 319 324 326 326 324 321 319 328 329 331 336 339 339 340 341 343 342 343 340 338 339 340 338 336 337 338 339 340 342 345 348 351 352 351 351 353 353 353 352 357 358 359 357 357 356 358 359 360 361 360 362 363 363 358 358 359 356 352 356 350 350 352 358 361 361 362 363 363 363 369 368 367 367 366 366 364 364 363 359 359 357 362 360 360 357 357 352 351 351
307 310 309 310 311 310 311 315 315 314 316 323 318 311 315 318 322 326 334 334 334 337 337 339 341 342 341 338 338 340 339 338 338 338 339 339 341 343 348 350 350 351 351 352 353 352 354 358 359 360 358 357 357 359 360 360 360 358 357 356 354 354 354 353 352 348 348 346 345 349 359 358 357 364 363 363 362 364 364 369 368 368 366 362 361 362 361 360 355 364 359 360 362 359 360 357 350
304 307 312 311 310 311 311 311 313 310 308 316 320 308 307 318 319 323 330 330 331 336 336 337 339 341 341 339 337 337 336 336 337 339 340 339 341 342 345 349 349 350 351 352 354 354 354 358 360 360 359 358 357 360 362 361 359 358 357 352 352 353 350 350 354 352 350 350 351 349 357 358 361 361 362 365 365 367 369 369 372 367 366 366 362 363 360 358 355 359 363 363 363 362 362 362 356
303 310 311 311 310 309 309 311 314 312 315 316 316 313 311 312 317 326 329 328 329 329 333 335 335 337 338 338 337 338 335 336 336 337 339 340 341 342 343 347 348 348 351 352 353 353 356 357 361 360 361 359 359 361 362 362 359 358 357 353 351 350 348 349 354 353 354 354 354 354 357 354 359 362 362 365 369 369 367 370 368 367 366 365 363 361 360 359 361 365 364 367 366 366 362 356 354
306 311 311 309 309 309 310 311 312 313 311 309 314 318 312 310 318 326 327 324 326 331 333 335 336 338 339 340 339 338 338 339 337 336 338 339 340 342 343 345 347 348 349 350 352 355 357 357 361 362 360 361 359 362 362 360 360 358 357 353 350 350 348 349 353 356 355 355 356 358 357 355 358 360 363 364 364 367 367 367 372 369 366 365 363 361 361 361 362 366 366 364 364 362 361 362 359
309 309 311 312 311 310 310 310 311 313 309 306 311 316 310 311 317 318 323 322 321 325 329 334 334 335 337 338 339 339 339 339 338 337 338 339 342 342 343 345 346 347 349 350 351 355 357 358 359 360 361 360 361 362 361 360 359 359 357 352 351 350 349 350 352 353 355 359 357 359 359 359 354 356 358 363 367 364 367 369 365 364 364 362 361 362 363 365 365 365 366 363 369 366 367 361 359
311 310 310 309 309 309 311 311 312 310 304 307 312 314 314 306 316 317 319 320 324 322 324 332 337 336 337 340 341 339 337 339 338 338 338 339 342 343 344 344 346 347 349 349 350 353 357 358 359 358 361 360 362 362 360 360 359 359 357 355 354 353 351 351 351 352 353 355 356 355 357 358 358 354 352 356 359 361 363 366 363 362 363 364 362 364 363 360 361 359 361 365 364 364 363 365 362
310 310 308 309 308 311 311 310 312 303 300 309 314 313 315 306 314 321 324 328 328 328 324 328 333 337 339 339 340 339 339 339 340 339 338 339 341 343 343 344 344 346 347 348 349 351 357 360 360 359 360 360 361 363 360 358 357 359 358 358 357 357 356 352 352 351 353 354 353 351 353 352 353 352 355 351 353 355 359 360 363 363 364 365 365 364 363 362 361 361 362 365 365 365 364 364 361
310 310 310 303 302 303 300 304 299 300 300 308 312 313 310 311 316 320 325 326 329 330 333 328 332 336 338 340 340 341 345 344 340 339 338 337 338 340 342 344 345 347 346 347 348 351 355 359 361 359 361 360 361 362 362 360 358 358 358 358 358 358 357 355 355 354 354 354 352 350 353 353 353 352 350 350 351 354 357 359 360 360 363 366 368 369 367 366 367 364 364 363 363 367 364 365 362
310 307 307 302 299 298 295 300 303 303 306 310 311 315 308 315 320 325 323 326 330 331 336 335 334 333 336 339 341 342 341 340 342 340 339 339 338 339 343 345 345 346 346 347 349 350 353 356 362 360 361 361 362 361 361 360 359 359 360 360 358 358 357 356 354 353 352 353 352 351 349 350 352 351 350 351 350 352 353 356 359 361 365 366 368 370 368 368 369 363 364 366 363 365 367 367 364
309 311 308 305 303 299 296 299 297 299 303 308 313 308 306 309 312 325 325 329 329 333 337 338 337 336 336 338 340 341 343 343 344 340 338 339 338 341 342 343 345 346 346 347 349 350 353 351 360 360 363 362 361 360 360 360 359 360 361 360 359 357 355 355 353 352 353 352 350 350 352 349 348 350 349 354 355 354 353 355 356 358 360 364 366 368 363 366 367 367 365 370 367 364 368 365 362
310 311 312 306 304 308 299 302 302 301 301 302 307 305 315 314 323 328 329 328 330 335 335 336 334 338 339 337 337 339 340 345 341 341 340 339 341 343 343 344 346 347 349 348 348 350 352 352 357 361 362 363 362 362 360 360 360 360 363 363 360 360 357 354 355 355 354 352 352 351 352 354 351 351 353 355 354 355 354 353 356 357 361 360 363 366 367 365 367 364 364 364 364 359 361 365 363
308 309 304 306 312 309 305 306 307 306 303 301 308 307 313 321 324 326 328 325 327 332 334 334 334 336 339 335 337 340 341 342 342 341 341 343 339 342 344 344 345 345 347 347 349 350 353 353 355 359 361 362 361 363 360 360 361 360 361 361 361 359 356 353 351 352 351 353 355 353 350 351 352 354 351 354 356 359 359 356 356 354 358 360 362 364 363 365 368 368 364 367 364 364 364 364 364
309 304 307 313 314 311 306 299 304 301 297 300 305 303 310 308 306 323 320 324 325 325 332 333 333 333 334 335 339 339 341 343 346 346 345 346 343 341 343 344 345 346 346 347 349 351 353 352 352 357 359 359 360 360 357 359 359 359 360 361 362 361 357 354 352 351 351 352 353 355 353 351 350 350 352 352 355 356 360 360 358 357 357 359 359 359 362 363 365 363 363 367 367 368 366 366 364
309 307 315 306 301 301 305 302 294 296 296 298 302 305 305 307 311 318 317 320 321 323 328 331 330 330 332 336 338 341 342 343 344 345 345 344 341 345 343 344 346 349 350 347 348 349 350 350 352 353 356 355 358 358 358 357 358 357 357 359 359 360 360 358 356 356 354 351 351 352 351 351 351 352 353 355 357 354 357 358 360 358 359 359 360 359 361 364 365 363 362 360 365 367 365 364 365
313 314 309 313 309 304 301 303 304 303 297 297 300 304 300 314 316 320 319 323 324 324 326 330 331 330 330 333 337 338 337 340 342 345 348 347 347 346 344 344 346 352 352 349 347 346 346 350 351 351 354 352 352 355 357 355 356 356 357 358 360 361 361 361 359 359 356 353 351 351 352 350 351 351 350 353 354 354 356 356 356 355 354 354 356 357 358 361 364 363 361 357 360 367 366 365 363
307 307 305 308 307 311 307 307 304 301 299 299 298 298 307 317 322 323 324 326 328 328 327 330 331 334 333 335 336 337 338 338 342 345 346 349 348 345 346 346 350 353 350 349 349 348 349 352 349 353 357 354 350 350 355 355 355 357 356 359 359 359 358 358 359 358 357 357 356 355 353 354 353 352 352 352 354 356 356 355 355 357 353 356 358 357 357 359 363 362 362 362 362 365 366 365 367
309 308 306 308 306 303 300 299 307 304 301 297 297 297 309 321 326 327 327 323 330 332 329 329 332 334 336 337 338 338 339 340 339 346 345 348 349 346 347 349 346 348 349 350 353 354 355 356 354 355 357 353 353 350 353 356 355 351 354 356 358 361 360 359 356 356 357 357 357 358 359 358 355 356 356 353 356 356 355 354 354 354 357 354 357 360 356 360 362 362 363 359 358 362 366 364 363
Wind_Speed
8 9 8 6 2 5 4 3 2 5 5 3 7 7 9 10 11 11 11 8 8 6 8 9 8 8 3 3 10 9 8 9 6 2 8 9 13 16 17 20 13 12 11 10 11 12 12 12 12 13 10 11 12 12 12 12 11 11 10 10 9 8 7 6 7 7 7 7 6 6 7 9 15 10 11 10 12 8 12 10 13 14 15 14 14 15 16 15 14 14 13 13 13 12 12 13 14
9 8 5 0 3 4 3 3 3 1 5 8 9 8 10 10 8 9 10 9 7 7 8 8 10 11 6 9 12 10 11 13 8 11 12 14 14 15 17 20 16 15 11 10 10 10 11 11 12 12 10 12 12 12 12 11 11 10 10 9 9 8 7 6 5 3 5 7 9 9 9 11 17 10 10 8 13 10 10 11 13 13 14 15 14 15 16 14 14 14 14 14 13 12 12 13 14
6 4 4 2 3 4 4 3 4 4 6 8 8 9 10 10 12 11 11 11 9 9 9 9 8 7 5 6 12 5 11 12 15 16 12 17 14 12 17 17 15 14 15 9 9 9 9 11 12 12 12 12 12 12 12 12 11 11 9 9 9 8 7 7 6 6 7 12 10 10 10 12 16 13 11 10 10 13 12 12 13 13 13 14 14 14 15 14 14 14 14 14 14 13 13 12 12
8 2 3 0 3 2 3 4 6 2 5 8 9 8 10 11 12 12 11 10 10 10 8 7 6 6 3 11 11 10 11 11 13 14 11 12 11 13 15 18 19 13 10 9 9 7 8 12 13 12 12 12 11 11 10 10 10 10 9 8 8 7 7 8 8 8 11 12 10 10 10 8 13 13 12 12 11 11 12 11 13 13 13 14 13 13 13 13 13 14 14 14 13 12 12 12 13
10 2 2 4 4 2 1 1 5 5 6 6 8 10 12 12 13 11 9 9 10 8 7 7 8 7 9 9 7 6 9 11 13 13 11 11 14 13 13 13 13 18 12 9 10 9 8 13 12 12 11 12 12 12 10 10 9 10 9 8 8 8 8 9 9 9 9 11 13 10 10 6 8 12 12 12 12 12 12 11 8 12 12 13 13 13 13 12 13 13 13 13 12 12 12 11 12
6 2 2 3 4 4 3 5 5 6 8 9 9 10 13 12 13 11 10 9 9 7 6 7 8 8 10 11 9 8 6 7 12 11 12 13 14 15 13 10 11 12 19 13 13 8 9 14 13 12 11 11 11 11 10 10 10 11 10 9 9 10 8 8 9 9 9 10 12 9 10 7 9 11 12 12 11 11 13 12 9 9 12 12 12 12 12 12 12 12 13 12 12 12 12 12 11
4 1 1 4 6 3 2 5 8 7 9 9 9 11 12 12 12 12 11 10 9 7 2 10 10 11 9 9 13 12 13 12 10 11 11 15 14 13 12 11 10 11 14 14 13 12 14 15 14 12 11 10 11 10 9 10 11 11 10 10 11 10 9 7 7 7 7 9 8 13 10 5 8 11 11 11 12 12 13 12 12 11 11 12 12 12 12 11 11 12 12 11 11 11 11 11 11
1 4 0 3 3 4 4 1 7 8 8 9 11 12 12 11 10 10 11 8 8 6 4 9 9 10 11 9 10 9 7 9 13 15 17 14 13 12 11 10 11 11 11 15 10 12 16 16 14 13 11 10 11 10 9 10 10 11 11 10 10 10 10 10 8 7 8 7 7 12 10 5 10 11 10 11 11 11 10 10 11 11 11 11 12 12 12 11 11 11 10 10 9 9 10 10 11
5 2 4 3 3 3 4 4 9 9 10 9 11 12 11 10 10 9 7 8 8 6 7 8 9 9 11 14 11 10 10 13 15 16 15 15 13 11 8 10 10 9 11 14 12 12 12 15 14 14 13 11 10 10 10 11 10 10 11 10 9 9 9 11 9 9 10 8 9 10 11 3 8 11 11 11 12 11 10 10 8 9 10 10 11 11 11 11 11 10 10 9 8 8 9 9 9
2 2 1 1 2 5 8 7 8 9 10 10 11 10 9 8 9 6 9 8 8 8 7 8 10 12 13 14 12 10 10 15 16 15 14 13 12 10 10 10 10 10 10 12 13 12 10 15 15 13 12 11 10 10 10 10 10 10 9 9 8 10 9 9 9 10 8 8 9 13 11 6 5 9 10 11 13 12 11 10 10 9 9 9 11 11 11 10 10 10 8 8 8 8 8 8 7
3 4 2 1 1 5 3 7 9 10 11 10 11 10 9 6 8 8 6 9 8 8 9 10 12 14 13 13 10 11 14 14 14 15 13 12 11 11 10 9 10 10 11 12 11 12 11 11 15 14 13 12 10 10 10 9 10 10 9 9 8 7 8 9 10 10 9 8 9 9 14 9 9 12 11 12 12 12 11 11 11 10 10 10 10 9 9 10 9 10 9 8 8 6 6 7 6
4 1 2 1 5 4 4 8 10 10 11 10 10 9 5 8 6 8 8 9 8 9 8 5 10 11 12 12 10 12 14 13 13 13 13 12 10 10 10 8 9 10 11 11 11 11 11 10 10 12 12 11 11 10 10 10 8 8 8 8 8 5 7 9 9 9 10 11 10 9 14 6 9 12 12 12 12 12 12 13 11 9 10 9 9 7 9 8 8 9 9 8 6 6 6 4 7
6 2 4 3 2 5 5 9 9 11 9 10 10 8 6 7 7 7 7 9 7 9 7 6 11 8 11 11 10 13 14 14 12 12 12 10 10 10 9 9 9 10 10 10 10 11 11 9 10 9 10 11 9 8 8 9 8 8 8 8 7 7 6 7 9 10 10 13 9 9 14 9 10 12 13 12 12 12 12 11 10 11 11 9 9 8 7 7 9 9 9 8 7 6 5 5 7
4 2 1 4 6 3 2 8 8 8 8 10 8 8 6 6 6 7 6 9 8 6 8 8 7 11 13 12 11 11 12 14 14 12 10 11 9 9 10 9 9 9 9 10 9 11 8 8 9 9 10 7 7 8 9 9 8 8 8 8 8 7 8 6 8 9 11 12 11 6 12 14 11 11 11 13 13 12 12 11 12 12 11 10 10 9 7 6 8 8 9 8 6 6 6 7 6
4 7 2 3 6 7 6 0 9 8 8 8 9 7 6 6 7 4 6 10 8 5 9 5 8 9 9 12 11 11 13 15 14 12 12 11 11 10 10 9 9 8 8 9 11 8 9 4 10 8 8 6 6 5 6 8 9 9 9 10 9 10 9 9 6 7 8 12 14 14 11 12 12 12 12 13 13 12 11 11 10 9 10 9 9 10 10 9 8 7 7 7 6 6 7 6 6
4 6 5 3 4 4 6 5 12 5 6 5 6 7 7 7 5 6 5 2 8 7 4 7 5 3 13 11 14 16 16 16 13 13 12 12 11 10 10 8 7 8 7 7 11 9 10 8 7 7 7 8 7 7 5 7 9 11 10 10 9 10 9 9 7 5 7 11 12 14 12 10 10 9 12 11 13 12 11 10 10 9 6 9 9 9 8 8 7 7 6 6 5 6 6 6 6
3 2 2 2 3 5 2 3 4 4 4 8 9 7 7 7 5 6 2 3 9 8 5 6 8 4 7 13 18 18 17 15 14 14 13 10 9 8 7 7 6 6 5 7 5 6 8 7 8 7 7 7 6 7 6 5 7 10 10 9 9 10 11 9 10 5 10 7 9 13 9 8 7 7 7 8 11 9 11 12 11 11 10 9 9 8 8 7 6 6 6 5 5 6 6 7 6
5 2 2 2 4 4 4 3 3 5 6 9 6 7 7 8 7 6 5 5 7 5 6 8 7 8 13 19 19 18 17 16 16 14 12 11 9 8 7 7 6 6 6 6 6 7 7 8 7 7 7 7 6 6 5 5 6 7 7 7 6 6 8 12 11 8 8 5 8 7 6 7 6 6 7 5 6 9 10 12 12 11 11 10 9 8 7 7 7 6 6 6 5 7 7 6 7
6 7 3 2 1 7 2 2 4 5 3 6 9 6 6 7 7 7 6 8 8 7 7 10 13 15 17 17 18 18 17 16 16 14 13 12 9 10 8 7 6 7 6 6 7 7 6 7 7 7 7 7 6 7 4 6 7 4 6 7 6 9 7 6 8 7 4 5 5 3 4 5 6 4 3 6 5 9 10 11 11 11 11 10 9 8 7 7 7 6 7 7 9 10 7 6 4
1 2 7 6 8 6 8 7 1 4 5 7 8 7 5 8 6 6 4 8 7 8 10 11 12 16 16 18 18 17 16 15 14 14 13 11 10 9 9 8 7 5 6 6 7 6 6 6 6 7 8 7 7 5 6 6 5 4 4 4 7 6 7 7 5 6 5 3 4 3 3 6 9 5 7 11 11 8 8 10 11 11 11 10 10 7 7 7 7 8 8 11 9 7 6 8 7
4 7 6 6 6 5 5 6 8 7 7 6 6 7 5 8 6 6 6 8 5 6 8 10 13 16 18 18 17 16 15 15 14 12 12 10 9 7 7 6 7 6 5 6 7 6 7 7 7 7 7 7 6 6 6 6 6 4 4 6 5 7 8 7 7 5 7 5 6 4 4 5 6 8 7 6 5 6 7 7 8 7 7 6 10 5 6 6 7 6 7 8 7 7 9 5 2
7 6 4 4 3 10 3 4 4 2 3 4 7 8 7 7 7 5 5 5 6 6 9 11 14 16 18 18 17 16 16 14 13 12 11 10 9 8 7 7 8 7 6 6 8 8 8 7 7 7 7 7 6 3 5 6 8 5 4 3 3 4 5 8 5 5 6 7 6 5 5 5 6 6 7 6 6 6 6 7 7 6 6 6 6 5 5 5 6 5 5 6 8 8 3 0 3
7 4 4 3 6 5 5 2 5 3 4 5 7 7 5 8 5 6 7 3 6 5 8 12 14 16 16 16 15 16 15 14 13 12 11 10 9 8 8 7 7 7 6 7 7 7 8 8 8 7 8 7 7 7 5 5 4 5 5 4 4 3 6 6 6 3 4 3 4 5 5 6 6 5 5 5 5 5 6 6 5 6 6 6 6 4 6 7 6 4 4 6 5 4 5 5 5
5 5 4 4 5 5 3 2 4 4 4 2 7 6 7 7 8 1 3 4 5 8 11 12 15 16 16 16 15 15 14 13 12 11 11 10 8 9 8 8 7 7 6 8 8 8 8 10 7 7 7 7 6 6 6 7 7 9 6 5 5 6 6 8 5 5 5 3 4 4 4 5 6 5 6 5 5 4 6 5 5 5 5 4 5 5 5 4 3 3 3 1 2 2 2 1 4
5 2 3 4 3 5 3 4 4 2 2 3 6 1 5 5 3 5 0 9 6 6 11 13 14 16 16 15 15 14 13 12 12 11 9 7 7 8 7 6 7 7 8 7 7 8 8 9 9 10 8 8 6 7 6 5 5 5 8 8 9 8 7 10 7 6 6 7 4 3 4 6 5 6 6 6 6 6 5 5 5 5 5 5 5 4 4 3 4 4 4 3 1 2 2 5 3
3 3 1 4 4 3 5 4 2 3 2 8 10 6 7 6 7 6 8 8 8 10 12 13 15 15 15 15 15 14 13 12 12 11 9 7 7 8 7 7 7 8 8 8 8 7 8 9 9 8 8 7 7 6 5 6 6 6 6 6 7 7 5 4 13 6 5 5 4 4 3 6 5 5 6 7 6 6 5 5 5 5 5 4 3 3 3 3 3 2 1 1 2 1 0 2 3
4 4 3 3 3 5 6 6 4 3 5 4 7 5 6 5 5 2 8 11 8 11 13 13 14 15 15 13 13 13 13 13 11 9 9 9 8 7 7 7 7 8 8 8 8 6 7 9 9 8 7 6 6 6 5 6 5 6 6 6 5 6 9 10 10 10 3 5 6 4 8 11 11 10 7 6 5 6 5 4 5 4 4 4 3 3 3 2 1 1 1 1 2 1 1 2 3
4 3 3 2 3 6 5 3 3 5 5 3 8 10 7 4 3 4 6 9 9 12 13 13 14 14 13 14 13 11 11 11 9 10 10 10 8 7 8 6 6 9 8 8 7 7 8 9 10 9 8 7 6 7 6 6 6 6 7 7 9 7 8 8 7 11 15 11 8 7 10 5 3 6 6 6 6 6 5 5 4 4 4 3 4 3 3 2 2 3 1 0 1 2 2 3 3
5 6 4 3 1 3 8 7 4 2 5 10 13 13 6 2 2 2 5 9 8 10 12 14 14 13 14 14 12 11 11 10 10 8 8 8 8 7 8 7 7 7 6 8 8 8 9 9 9 9 9 7 7 8 7 6 6 6 6 6 7 7 6 4 5 7 7 9 10 10 3 2 2 6 5 5 6 6 6 5 4 3 4 3 2 2 2 3 2 2 5 4 3 3 2 2 4
8 7 4 4 7 1 6 5 4 5 6 12 10 4 8 6 4 4 8 6 8 10 13 13 13 13 13 12 11 11 11 11 10 9 9 8 8 8 8 8 7 7 7 6 8 8 8 8 7 7 8 8 7 8 6 6 6 6 5 6 7 7 5 7 6 6 7 7 7 6 5 4 4 5 5 5 5 5 5 4 5 4 3 2 3 4 4 4 4 4 2 2 1 2 2 1 1
8 5 9 4 6 1 5 4 6 7 8 9 8 2 5 8 6 5 7 5 6 10 11 14 13 13 13 12 11 11 12 10 11 11 10 9 8 9 9 8 8 7 6 7 8 8 8 8 7 7 8 8 7 8 7 6 6 6 6 6 6 6 6 6 7 7 7 6 7 5 5 5 5 5 4 3 4 5 5 5 5 4 3 3 4 2 2 2 3 2 0 1 2 1 1 1 0
8 8 7 7 4 4 1 2 2 5 7 7 6 6 7 7 7 7 6 5 4 10 12 15 13 13 13 12 13 11 12 10 11 11 11 10 9 9 9 10 8 8 7 8 8 8 8 9 8 10 9 9 8 7 7 6 6 6 6 5 5 6 6 7 7 8 7 7 7 6 5 5 5 4 4 2 4 5 5 3 3 4 3 2 2 3 3 3 2 5 1 2 1 3 2 5 3
8 9 6 3 3 4 2 7 3 7 9 7 2 6 9 5 6 6 5 5 9 11 12 12 14 14 12 12 11 11 12 12 10 11 11 10 9 10 9 10 8 8 8 8 8 7 8 10 7 11 10 9 8 9 7 6 5 5 6 7 6 5 6 6 7 7 7 7 7 7 6 6 5 5 4 2 3 3 2 3 5 4 3 2 2 4 4 3 3 1 1 2 1 3 3 2 5
7 5 6 8 8 1 1 5 9 7 4 3 7 8 8 5 11 9 9 10 14 12 12 12 13 12 12 12 11 12 11 11 10 10 12 11 8 11 10 10 10 9 9 9 9 8 8 9 7 9 10 9 8 7 7 7 6 5 6 6 6 5 6 6 6 6 7 6 7 7 7 6 5 5 4 2 4 2 5 3 5 3 2 2 2 3 3 4 3 6 2 1 2 3 3 1 1
2 2 3 8 3 4 4 1 3 3 9 4 8 7 8 11 11 11 10 14 13 12 11 13 12 14 13 11 11 12 11 12 12 10 13 11 12 10 10 11 11 10 8 10 9 8 7 7 7 9 8 9 9 8 7 7 7 5 5 6 5 4 5 5 6 6 6 6 7 8 7 6 6 6 5 3 2 3 7 4 4 1 1 1 2 2 3 2 1 2 3 2 3 2 2 2 2
6 3 4 5 3 1 3 2 1 2 10 3 7 6 6 12 12 11 13 13 13 11 12 10 11 13 12 12 12 11 10 12 12 12 13 10 10 10 11 10 10 10 9 10 9 8 7 8 9 8 8 9 9 8 7 7 7 6 7 6 5 4 5 5 5 5 6 6 8 8 6 6 6 6 5 4 2 1 1 3 3 3 1 2 1 2 2 4 3 1 0 2 3 2 3 2 3
9 11 7 8 3 6 9 3 4 4 5 4 9 4 7 10 12 13 14 13 13 12 13 11 11 11 12 12 13 13 12 11 13 14 13 12 12 10 11 10 10 11 10 11 10 10 9 8 9 9 8 8 8 8 7 7 7 6 6 7 7 6 4 5 5 5 6 6 9 8 6 7 6 6 6 4 3 2 0 2 2 1 2 2 2 0 2 3 2 2 1 3 4 2 2 3 4
9 9 9 6 5 1 7 4 3 3 2 8 10 17 11 8 8 10 10 13 14 14 13 13 13 12 11 12 12 12 13 9 13 13 14 14 12 12 11 10 11 11 11 11 11 11 10 10 10 9 8 8 8 8 7 7 6 6 6 7 6 6 6 6 5 5 5 8 8 8 6 7 7 6 5 4 4 3 2 2 2 2 1 1 0 1 2 1 1 3 2 1 5 0 2 2 4
8 8 8 9 5 4 4 3 2 2 7 4 3 5 12 20 17 14 12 14 13 13 13 13 13 12 10 11 12 12 13 12 12 13 14 14 14 14 11 10 10 11 12 12 11 11 11 10 9 9 8 8 8 8 7 6 7 6 6 5 6 6 7 5 5 5 6 8 8 7 6 7 6 6 6 4 4 3 2 1 2 3 1 1 2 2 3 1 3 2 4 2 4 4 1 3 1
9 7 7 7 8 7 4 5 3 3 4 3 3 4 4 5 7 11 14 13 9 11 13 13 11 12 12 12 12 12 13 14 14 14 15 14 14 13 11 11 11 11 11 11 11 12 10 9 10 9 9 8 8 8 7 7 7 6 3 5 4 5 6 5 5 5 6 8 8 8 6 6 7 6 6 5 3 2 2 2 2 2 2 1 1 1 2 2 1 4 3 1 2 4 6 3 1
9 10 10 11 7 6 5 5 4 3 7 5 6 4 4 2 7 8 9 9 7 10 11 11 12 12 12 12 11 12 14 13 13 13 14 14 14 14 13 11 11 11 11 11 12 11 9 11 11 10 9 8 8 9 7 7 6 6 3 3 3 4 5 5 5 6 5 7 7 7 7 7 6 5 5 4 3 3 2 2 1 2 1 2 2 3 3 4 3 2 0 2 2 3 6 5 4
8 9 9 12 13 3 2 1 7 7 5 8 7 6 2 7 8 7 8 7 10 10 10 12 11 12 11 13 13 13 13 13 14 15 15 14 14 14 13 12 12 11 11 11 11 12 11 11 12 11 9 8 8 10 8 7 7 7 6 6 6 5 6 6 6 7 7 7 7 7 8 7 7 5 5 4 4 4 4 3 2 2 2 2 2 2 1 1 3 4 4 4 1 1 4 2 6
7 6 13 12 11 6 6 7 7 7 6 4 6 9 1 1 7 9 8 9 10 8 12 11 10 9 10 10 13 13 13 14 14 14 14 15 15 15 14 13 13 12 12 11 11 12 12 12 12 12 10 8 9 10 9 7 8 7 8 8 7 6 6 5 4 4 5 6 5 8 6 7 7 5 5 4 4 3 3 3 3 3 2 2 3 2 3 5 5 3 2 0 1 4 2 3 3
8 4 3 4 5 6 10 9 8 7 8 7 8 6 5 5 5 10 9 12 10 12 10 13 11 11 11 11 14 13 13 14 14 14 15 14 15 15 15 14 13 13 12 12 11 12 12 13 13 12 10 9 9 10 10 8 8 7 7 7 6 6 6 5 5 5 4 5 4 6 6 6 6 5 5 5 4 4 4 3 2 2 2 2 2 3 2 2 3 3 1 1 1 1 3 3 4
8 10 6 7 6 10 9 7 9 5 6 7 7 4 6 3 4 3 8 6 8 7 9 9 9 11 12 10 10 12 13 14 15 13 15 14 14 15 15 14 13 13 13 12 11 12 12 12 13 12 11 10 10 11 10 9 8 7 8 7 6 6 7 6 5 5 4 5 5 5 5 6 6 6 5 5 6 5 4 4 3 3 3 2 3 3 3 2 2 1 1 1 3 3 4 1 3
2 4 5 7 8 7 7 8 8 4 5 8 7 3 5 1 6 4 6 6 2 2 9 10 12 12 11 11 12 13 13 13 13 15 15 14 14 14 14 14 14 13 12 12 11 12 12 12 13 13 12 11 10 12 11 11 9 8 8 7 8 7 6 6 5 5 4 5 5 5 4 4 6 6 7 5 5 6 5 4 4 5 4 4 3 1 1 2 2 3 3 3 1 2 2 4 4
8 7 7 9 6 8 8 7 5 4 9 9 10 5 4 5 5 1 4 3 6 6 7 4 7 10 10 10 11 10 14 14 12 13 14 14 14 14 14 15 14 13 12 13 12 10 13 13 14 13 13 10 11 12 12 12 10 9 8 8 8 8 7 7 7 7 6 6 6 6 6 5 5 6 7 7 7 6 6 5 5 4 4 2 3 3 4 4 5 5 4 3 3 3 3 4 4
7 5 10 6 7 2 5 6 6 8 10 7 4 6 3 6 4 4 5 2 2 4 7 3 4 5 8 12 12 11 11 12 13 14 14 15 15 14 14 14 15 14 12 10 12 14 12 12 13 14 13 12 12 12 13 12 11 10 9 9 9 9 8 7 8 8 8 8 8 7 6 6 6 6 5 6 8 8 6 6 6 5 3 3 3 4 3 2 3 3 3 2 3 4 3 4 5
7 7 6 7 2 3 7 7 10 10 9 5 6 9 8 4 1 6 5 4 3 7 3 8 6 8 8 8 10 8 4 12 14 12 12 15 14 14 14 14 14 12 11 15 13 13 12 11 14 14 13 13 12 13 13 13 12 11 10 10 9 8 8 8 8 8 8 8 7 7 6 6 6 6 6 6 6 8 7 6 6 5 4 3 2 1 2 1 3 3 1 3 3 2 4 4 5
6 8 5 6 7 6 7 7 7 9 11 8 6 1 8 6 5 4 1 2 11 6 7 8 11 7 7 9 7 3 5 8 10 9 12 14 14 14 14 13 13 12 13 12 12 11 12 10 13 13 13 13 12 12 13 13 13 11 11 10 10 9 9 9 8 8 9 7 7 7 8 8 7 7 7 6 6 7 7 7 6 5 4 4 4 4 3 3 3 4 4 3 5 3 4 4 5
6 9 6 6 8 7 7 6 8 8 7 7 6 6 3 1 4 5 3 2 6 8 8 1 1 7 9 9 8 8 6 8 11 12 15 13 14 14 13 13 12 13 13 13 11 12 13 12 12 13 13 13 13 13 12 13 12 12 11 11 10 9 9 9 8 8 9 9 8 8 7 7 8 7 7 6 6 5 6 6 6 6 6 5 5 5 5 5 4 4 4 4 4 4 4 4 5
5 5 7 7 10 4 9 9 6 7 11 7 8 3 5 4 4 4 2 5 5 7 9 9 11 7 6 9 9 10 5 7 11 12 12 14 14 14 13 13 12 12 13 12 13 11 11 13 14 13 13 13 13 13 12 13 12 11 12 12 11 10 9 9 8 8 8 8 8 8 8 7 6 6 7 6 7 7 6 6 6 7 6 6 6 6 6 5 5 5 5 5 6 5 5 6 5
4 5 6 8 3 7 9 9 11 9 8 8 1 4 8 8 5 6 9 1 2 4 13 11 10 8 7 5 8 6 6 2 4 3 5 11 13 13 13 13 13 13 13 13 12 12 12 11 12 13 13 12 13 13 13 13 12 12 13 12 12 12 12 12 11 11 11 9 8 8 8 9 8 6 7 7 7 8 7 7 7 7 8 7 7 7 7 6 5 5 6 5 6 6 5 5 6
5 7 8 11 6 8 8 8 5 5 8 9 9 9 9 6 4 5 2 11 8 11 11 10 9 5 6 4 4 5 7 5 3 3 6 11 12 15 13 13 13 14 14 14 13 12 11 11 13 15 14 14 14 14 14 13 13 13 12 13 13 12 12 12 11 11 11 9 9 8 8 9 9 9 7 6 8 8 7 7 7 7 6 8 8 8 8 7 7 6 7 6 6 6 5 5 6
11 12 11 10 1 8 6 5 9 7 8 7 11 10 6 3 7 2 4 3 7 11 10 10 9 9 10 6 6 4 5 3 2 4 2 3 5 11 11 12 12 12 12 13 12 11 11 12 13 14 14 13 13 11 12 11 12 11 11 12 13 12 11 11 10 10 10 11 12 11 10 9 10 9 8 7 6 8 8 8 8 8 8 7 8 8 7 7 7 7 7 7 7 6 6 6 6
10 7 10 7 5 5 7 6 8 8 10 7 7 9 4 6 6 4 3 2 7 8 9 7 8 8 5 8 5 5 5 3 2 4 5 5 5 5 13 9 8 4 8 8 12 13 13 12 13 13 15 16 15 13 11 12 12 12 11 12 12 11 11 11 11 10 11 11 11 11 11 11 10 9 9 10 9 8 8 9 10 10 9 10 9 9 9 8 8 7 7 7 7 7 7 7 7
5 7 8 6 5 6 8 4 6 6 7 8 8 6 5 5 2 2 2 5 7 7 6 6 5 7 6 5 5 4 4 1 3 2 1 2 5 4 7 5 2 6 8 14 12 11 10 8 11 12 11 13 14 15 13 12 11 10 12 13 13 13 14 12 12 12 11 11 10 11 10 11 10 10 10 10 10 10 9 9 10 9 10 8 8 8 8 7 8 8 7 7 7 4 7 6 6
4 5 5 6 6 7 6 8 8 9 7 6 6 5 6 4 4 2 3 3 5 5 7 5 5 7 5 1 3 1 2 5 2 2 0 1 4 6 6 5 2 2 3 8 6 5 9 12 13 9 9 10 11 11 14 12 9 9 14 12 13 9 11 12 13 13 12 11 11 10 10 10 11 11 11 10 11 11 11 10 10 10 9 9 8 8 9 8 8 8 9 8 8 8 8 8 8
Wind_Direction
224 218 215 213 268 287 261 205 230 161 210 134 82 76 89 93 100 100 101 142 93 77 102 107 92 75 108 153 67 57 52 41 77 99 95 118 136 134 140 124 132 136 135 134 136 137 133 131 129 127 116 119 119 116 114 117 115 113 118 124 130 127 126 122 119 116 132 142 159 184 188 154 107 108 110 116 123 131 123 132 116 109 104 106 105 100 99 95 91 95 95 96 93 92 91 93 96
216 211 234 278 263 43 279 191 263 263 206 89 76 95 100 90 102 91 89 77 83 109 105 96 76 74 47 64 87 89 73 83 109 90 104 123 139 123 126 129 133 139 134 136 137 130 129 131 130 126 126 124 120 117 120 119 121 124 126 125 121 119 116 103 92 42 162 159 178 189 140 118 111 127 118 134 127 128 124 116 108 106 108 107 102 99 102 104 108 108 105 98 96 94 91 90 95
198 235 178 255 277 225 267 258 276 119 102 95 88 91 108 98 82 81 88 96 112 122 107 87 82 57 33 102 81 83 84 82 92 110 110 128 127 129 126 119 136 136 132 135 126 123 123 126 135 133 129 122 118 121 124 126 128 128 125 124 122 123 112 96 71 52 95 144 147 134 135 122 120 140 138 128 125 128 121 114 113 111 109 104 104 104 102 107 104 104 101 98 98 97 94 93 94
286 217 281 83 264 169 268 219 256 86 90 85 109 83 95 100 94 89 96 119 127 120 111 88 75 130 216 65 70 85 89 87 103 114 125 139 122 129 130 135 137 115 120 126 120 115 121 131 131 129 125 119 121 117 120 124 125 126 125 123 128 126 118 101 86 71 62 80 93 55 57 94 138 134 129 128 120 111 109 104 108 123 114 108 109 106 103 104 107 102 102 103 103 103 101 101 104
250 192 254 242 292 236 267 348 275 75 83 105 98 108 101 102 106 110 114 133 112 99 95 102 110 96 64 60 71 81 77 104 118 126 122 119 127 125 126 129 129 129 127 135 118 115 120 120 122 117 118 121 121 119 125 130 135 129 114 127 133 138 124 112 107 99 88 97 108 120 126 146 146 126 130 126 121 116 113 108 105 108 116 113 112 109 107 103 105 103 102 102 99 99 103 106 101
237 282 174 286 250 20 284 257 147 79 55 100 108 106 106 110 113 120 129 112 114 98 66 93 93 112 81 59 44 74 122 109 126 122 122 126 127 125 123 128 125 120 127 140 120 116 135 125 124 122 123 125 123 123 136 145 138 130 130 134 145 146 132 122 118 109 105 105 117 126 130 163 134 128 129 124 121 119 119 123 120 119 113 113 110 108 108 107 100 102 103 103 103 101 102 106 105
240 175 137 246 259 237 240 262 101 87 67 88 101 109 111 111 117 124 122 124 86 95 109 108 122 116 106 105 87 72 85 115 133 120 126 127 125 126 132 127 119 119 130 123 128 132 125 126 128 128 131 127 124 121 132 140 138 134 132 142 149 153 145 132 115 107 125 136 143 137 129 174 134 128 128 121 119 118 118 125 129 120 110 110 108 107 107 104 102 101 100 98 100 102 105 107 107
141 92 211 264 287 219 252 206 77 98 90 89 98 106 109 113 117 125 128 126 127 118 111 84 64 76 80 86 91 67 87 102 110 124 122 129 129 135 131 124 124 127 119 109 109 122 126 129 129 128 128 130 128 131 146 144 143 135 130 140 149 153 143 141 128 126 137 135 119 110 121 150 137 126 122 117 114 108 107 107 110 111 110 108 107 104 103 103 101 101 100 95 93 95 98 104 105
149 184 155 241 303 8 259 106 90 93 97 98 91 92 109 113 112 115 104 101 125 116 120 104 100 102 96 95 84 103 98 108 112 121 129 130 136 131 131 132 129 123 125 119 130 129 128 128 129 134 135 134 138 147 152 146 141 138 136 137 143 148 144 139 142 142 147 142 108 104 112 124 138 126 118 113 101 100 104 102 97 104 102 104 106 108 103 102 103 100 96 99 92 93 94 100 105
177 235 302 311 58 310 231 114 120 104 110 109 110 111 107 119 122 121 119 132 117 129 104 86 108 109 116 104 112 111 110 116 125 130 131 135 130 132 134 131 129 132 121 121 132 133 123 129 130 130 132 132 138 152 151 146 143 136 141 148 142 142 143 146 147 159 160 135 117 124 121 138 177 109 108 111 121 125 125 123 115 102 98 99 96 93 97 101 105 105 101 96 100 98 98 101 107
211 212 180 271 292 298 167 125 119 122 109 107 105 103 97 104 124 116 105 105 122 117 110 116 117 117 106 92 88 105 120 124 130 128 132 131 133 137 131 135 136 132 123 128 126 121 134 126 127 126 128 138 141 143 144 146 146 138 146 150 146 147 142 146 156 152 136 122 100 117 128 157 170 138 135 129 118 121 124 112 111 104 100 86 85 82 94 102 110 116 116 111 107 100 102 103 113
298 222 105 260 252 210 171 110 118 112 112 117 108 110 115 111 118 119 125 131 140 129 121 172 109 117 113 117 118 128 129 129 128 133 137 136 140 134 131 136 132 124 127 121 124 132 124 129 129 125 126 131 134 137 139 133 138 141 147 146 139 148 156 155 159 146 137 119 130 146 120 189 136 129 129 124 120 122 123 120 112 109 99 94 93 99 103 106 114 121 121 121 117 118 119 143 114
283 288 189 198 197 253 82 124 116 123 126 116 115 105 125 113 94 99 116 117 137 128 116 100 128 139 121 121 122 130 136 135 137 136 138 141 131 137 138 132 130 123 121 129 128 115 123 134 129 129 118 124 123 129 133 129 135 150 155 148 146 156 153 147 160 150 150 123 144 155 135 143 157 131 126 125 123 123 122 117 117 117 111 111 110 112 102 112 115 118 121 120 129 133 151 152 118
226 302 274 311 178 32 341 104 149 131 119 110 110 126 121 112 92 98 126 121 112 127 121 119 129 106 108 123 139 141 138 142 138 142 141 131 138 136 136 140 133 127 129 123 108 118 126 137 126 130 134 137 134 138 140 140 147 154 158 157 154 155 151 162 158 158 142 133 144 162 132 161 143 139 131 127 126 123 120 121 125 110 108 116 118 123 131 134 123 119 120 129 144 168 148 118 126
272 230 68 38 343 107 335 87 55 78 108 128 116 129 120 87 110 96 115 118 97 86 109 132 116 156 136 149 147 146 145 141 144 142 139 139 141 137 136 130 132 134 137 126 133 136 126 201 125 139 129 137 146 147 151 148 155 159 158 166 163 159 152 151 146 156 151 138 160 144 157 149 139 136 136 128 122 125 120 115 110 106 112 123 143 140 135 136 137 132 130 130 133 127 121 125 125
284 342 32 23 4 342 30 19 94 112 106 135 141 120 116 115 96 102 74 106 134 121 168 118 162 350 150 149 145 143 142 141 143 143 139 139 133 136 134 138 140 138 138 144 130 163 140 156 124 128 138 150 160 146 147 154 156 165 172 168 170 164 157 150 157 182 144 162 141 135 163 140 122 126 129 127 124 129 130 121 116 113 123 127 120 121 125 127 134 141 141 142 145 141 133 141 154
299 170 59 52 38 44 285 1 88 116 134 126 156 157 134 125 101 82 109 202 131 113 161 140 108 189 141 125 129 138 141 138 143 144 138 134 146 143 145 139 142 140 147 133 121 110 109 123 133 130 141 147 158 131 142 154 151 166 171 176 173 178 144 166 153 157 149 165 139 130 168 134 131 133 133 132 134 131 124 128 131 133 137 121 125 124 127 133 146 161 163 165 164 170 175 176 178
263 331 79 21 71 61 235 16 76 115 140 138 164 166 143 133 143 128 158 99 90 101 102 109 117 100 104 115 129 138 138 145 147 150 146 147 161 148 150 150 165 152 154 129 126 128 131 132 136 135 133 144 156 131 150 157 147 176 164 166 169 161 162 165 144 163 176 155 131 172 167 137 143 141 135 146 133 137 136 132 132 135 133 134 130 136 133 145 162 174 183 184 205 204 206 210 185
276 99 346 152 126 79 164 108 78 132 149 134 172 187 150 130 147 153 159 132 147 140 130 125 109 106 111 126 134 136 146 149 153 152 153 158 159 153 158 155 168 152 143 141 134 145 136 132 140 146 136 147 158 135 147 148 161 178 169 164 175 160 158 151 140 174 183 133 159 152 141 135 133 130 149 146 147 144 133 139 144 142 139 139 143 141 151 154 174 184 196 208 214 222 223 226 185
181 271 145 246 92 123 97 111 44 73 133 187 169 163 177 134 157 153 167 143 158 145 146 133 128 129 135 134 139 144 150 153 158 154 156 160 154 159 143 164 150 154 146 151 137 136 141 138 137 125 144 151 162 150 151 156 130 165 172 187 152 187 136 156 163 171 122 143 153 155 155 142 141 142 158 149 157 146 144 156 162 146 143 151 154 157 159 178 188 203 205 216 224 222 226 231 188
23 274 19 57 144 90 116 140 147 169 174 214 164 150 170 154 139 170 161 146 154 157 151 144 137 140 137 143 145 148 154 158 158 161 155 156 156 157 148 158 153 154 157 127 124 142 136 141 148 140 145 151 163 145 157 142 142 185 182 196 173 149 162 160 149 160 133 162 156 159 168 157 147 150 152 159 154 153 151 154 164 161 158 150 186 155 171 165 203 188 207 220 223 226 216 206 155
282 20 353 2 54 120 201 97 107 142 209 191 176 168 171 127 144 185 174 194 148 165 150 145 143 142 143 147 149 152 155 161 159 162 153 159 161 152 147 155 140 162 126 150 131 142 145 147 146 141 146 147 142 126 161 146 147 168 160 150 153 132 134 122 123 147 139 171 163 167 166 164 151 147 151 168 174 168 162 162 176 156 147 145 189 177 152 157 207 181 199 215 230 210 167 217 92
292 103 60 9 17 7 65 82 103 248 163 210 169 196 137 179 134 210 172 14 103 173 156 140 140 146 145 146 151 153 159 160 156 161 153 163 158 152 153 146 152 139 160 128 142 142 145 149 142 159 132 147 156 156 141 130 177 150 153 176 148 138 136 118 113 134 147 188 177 174 176 162 159 157 156 163 156 175 179 159 150 152 151 156 169 153 149 186 193 185 182 199 207 183 152 136 211
288 3 345 53 331 21 7 6 164 210 206 189 36 341 205 167 165 256 277 96 161 193 130 140 140 146 148 149 155 154 154 161 157 155 172 154 159 152 155 156 153 131 149 141 145 150 165 137 139 103 128 149 151 153 161 156 180 141 157 164 154 169 155 118 155 181 151 188 188 187 207 175 162 162 158 174 201 172 169 149 153 150 149 149 147 149 175 171 172 185 194 191 231 321 144 227 140
285 211 5 359 324 70 354 8 5 44 163 105 101 75 72 1 75 37 128 270 138 150 144 133 143 147 150 151 154 153 153 159 163 158 161 144 157 146 151 143 143 141 143 152 144 151 150 135 145 148 149 138 150 160 160 154 160 160 155 167 167 157 168 144 150 168 162 171 179 212 232 185 180 160 165 170 185 157 137 151 155 146 144 142 160 167 152 168 186 178 178 172 225 242 181 144 226
277 14 141 329 359 41 34 11 27 80 141 96 129 110 86 115 128 126 251 228 172 166 143 147 144 152 151 157 153 152 156 159 162 158 137 143 155 151 153 161 144 157 144 150 146 142 141 140 141 141 139 148 150 142 149 152 159 154 168 152 140 166 103 122 142 171 161 153 167 190 254 257 174 164 183 173 163 136 150 151 138 136 140 145 159 148 135 193 191 159 181 187 136 217 100 91 264
314 338 53 12 23 22 37 32 72 100 73 113 136 149 119 51 195 170 228 246 176 161 146 150 153 151 153 159 150 150 159 160 164 142 146 154 157 157 160 154 170 138 145 154 136 146 126 141 130 129 130 141 142 139 153 145 155 150 153 145 143 163 165 153 162 154 152 178 160 145 214 202 179 177 163 139 137 144 144 150 137 139 150 146 135 149 180 197 207 186 87 91 145 208 276 137 245
286 274 112 183 63 40 31 72 75 180 99 127 140 122 55 360 358 131 200 229 177 162 149 156 158 154 154 152 149 155 158 160 150 150 156 158 157 163 163 163 163 138 153 146 132 148 153 134 136 137 140 147 144 140 147 149 151 143 148 163 160 146 147 173 141 161 164 153 161 162 203 213 168 127 136 152 145 149 149 141 133 163 126 136 172 168 159 158 204 118 100 329 349 278 207 172 238
233 242 243 200 266 62 37 33 58 246 109 132 114 101 131 129 178 232 262 274 181 169 152 163 158 153 155 150 152 161 156 158 150 161 159 158 162 160 160 170 154 145 148 137 140 161 140 132 124 136 134 148 154 140 148 148 149 150 154 146 125 147 168 110 155 133 128 139 157 175 168 118 101 125 145 136 146 150 135 145 144 131 146 154 159 133 136 207 120 205 164 205 238 232 201 172 231
260 224 248 236 203 83 28 56 49 69 114 144 141 181 158 186 179 245 258 272 222 172 162 164 156 158 155 154 155 163 157 153 162 163 165 167 163 155 156 168 149 148 140 136 155 158 136 130 140 140 141 150 149 134 138 142 147 141 147 136 138 157 146 139 133 126 131 140 149 147 141 138 132 127 135 157 163 128 145 159 145 141 121 166 140 173 184 211 161 210 157 176 199 252 156 233 67
253 257 233 262 289 348 331 11 75 68 141 169 185 191 131 165 196 237 254 242 262 183 166 162 162 160 158 157 160 163 153 163 166 163 167 161 162 147 162 149 155 135 142 153 157 138 141 138 146 140 147 137 144 124 145 140 143 147 142 142 148 152 132 139 136 136 141 144 143 140 141 137 126 138 144 160 152 135 151 154 160 143 152 185 175 186 248 149 175 182 92 115 259 163 191 13 349
242 246 240 217 94 316 340 266 83 124 152 170 206 117 142 165 187 190 217 244 217 222 170 163 168 160 162 164 159 164 155 168 171 162 160 165 154 149 157 146 158 141 159 150 140 150 143 136 150 140 146 147 125 135 129 134 143 144 138 143 141 150 150 142 142 144 146 145 147 138 138 138 136 134 141 187 140 175 126 149 138 111 156 205 158 154 271 175 64 2 328 345 6 22 316 188 140
234 241 254 335 62 141 150 43 37 105 135 154 206 123 146 199 208 199 194 205 224 205 174 177 164 165 166 166 162 163 160 168 173 163 155 162 154 152 150 151 151 154 152 150 147 154 148 134 159 144 149 139 140 132 131 129 136 138 139 153 143 165 147 147 146 144 148 151 142 139 145 145 144 142 143 187 182 155 91 37 117 157 176 146 189 165 230 162 145 220 253 354 23 297 264 180 131
231 214 281 26 50 149 325 56 275 153 90 151 129 124 179 150 179 191 194 205 220 196 178 182 165 167 171 169 167 166 165 164 172 161 160 160 157 148 155 144 149 160 140 156 157 154 157 140 163 140 139 143 132 133 134 142 141 149 161 135 156 164 150 148 139 145 149 140 138 134 146 146 145 148 149 141 323 264 84 240 110 121 168 157 185 198 230 116 165 202 184 54 334 314 321 1 200
355 313 300 67 297 36 356 244 95 192 137 187 112 126 140 152 171 186 194 201 204 189 182 175 175 168 171 174 174 169 168 167 164 172 162 163 152 160 148 152 152 156 163 151 162 151 146 151 130 132 150 143 137 135 144 135 139 170 145 148 156 162 157 134 141 151 137 146 138 132 147 151 148 149 152 173 193 163 145 219 118 142 174 163 206 199 208 98 41 30 317 102 262 307 306 336 33
283 289 315 93 17 257 177 67 296 126 109 7 139 144 160 163 165 192 189 192 197 189 181 182 182 168 176 173 175 173 176 173 164 175 164 164 156 166 146 162 154 153 165 140 156 157 144 149 139 145 151 146 139 143 155 151 155 168 153 144 155 169 148 142 158 149 155 142 128 143 160 149 148 156 160 179 208 213 162 146 134 179 137 185 223 242 166 163 160 218 287 333 287 238 230 254 153
280 266 239 123 187 205 131 106 72 68 90 160 199 154 183 171 185 178 196 182 195 193 177 184 185 174 181 179 171 173 178 180 163 170 168 163 160 166 154 162 159 154 155 149 162 161 157 160 147 156 153 153 154 157 164 162 159 162 152 161 159 153 154 154 162 158 151 132 141 147 160 144 158 160 169 168 197 159 191 94 135 188 181 131 196 249 35 34 114 287 101 246 264 268 197 237 121
278 288 282 188 196 179 50 83 122 56 304 212 187 160 181 205 201 191 192 189 200 189 185 182 186 182 186 180 170 180 167 184 166 167 169 166 166 166 159 163 161 157 158 159 168 162 165 163 157 159 158 160 164 163 167 164 158 161 166 163 160 152 151 173 160 165 150 131 143 137 173 144 157 165 172 175 176 177 194 162 156 169 185 115 14 36 43 198 235 255 304 249 258 51 275 352 62
267 264 272 287 123 112 145 135 225 62 292 85 35 262 162 174 182 184 188 206 190 191 189 186 184 184 188 186 175 177 172 179 171 170 173 170 165 167 162 164 164 160 162 167 168 163 168 162 164 162 161 168 167 163 170 160 166 168 175 156 159 154 159 166 162 148 143 143 148 158 164 142 166 168 170 179 171 197 186 159 177 149 197 142 181 201 183 190 226 255 234 295 350 279 268 154 161
272 251 250 255 130 205 203 143 314 217 310 347 345 285 105 113 149 184 178 196 188 193 192 189 190 185 190 192 181 178 178 176 180 176 176 173 166 167 166 167 166 161 168 165 171 166 170 164 165 171 161 174 165 160 176 164 161 158 157 164 147 159 154 147 145 148 151 146 159 159 150 161 179 170 177 179 179 172 184 193 182 147 167 173 193 155 224 208 195 240 257 113 251 294 246 97 241
223 265 283 281 203 186 258 100 219 224 228 225 244 233 137 220 163 183 181 184 186 185 189 191 187 193 189 193 193 186 181 176 178 180 179 177 167 171 171 166 169 164 175 168 175 169 172 166 167 171 166 173 169 156 176 159 144 160 156 128 134 136 150 155 164 167 157 153 163 164 156 166 183 175 171 184 180 150 187 198 201 171 169 216 200 176 216 207 204 191 55 288 285 32 317 33 324
254 225 257 271 277 311 358 172 270 242 207 211 282 256 168 209 220 211 160 199 187 187 202 190 191 188 190 197 193 189 188 177 184 181 183 176 178 166 171 173 172 168 177 170 179 168 169 165 165 172 170 173 170 160 171 167 162 169 167 164 168 170 165 177 178 173 164 168 174 165 154 171 173 181 170 181 177 165 184 192 205 218 190 180 223 278 344 40 202 235 157 244 113 78 335 90 254
267 246 205 218 260 280 280 287 262 276 283 147 214 275 35 195 196 216 177 201 196 200 192 196 194 200 200 206 197 187 192 179 189 180 187 178 179 167 173 180 175 175 177 169 176 164 168 161 164 173 170 174 169 165 170 171 170 178 179 178 179 177 174 172 176 182 162 172 178 161 166 169 171 188 171 190 159 171 183 186 197 219 215 193 200 197 211 227 180 201 91 238 320 34 286 304 37
249 11 329 340 324 274 261 265 267 268 286 302 247 244 262 169 22 273 170 200 182 208 191 205 192 196 203 208 211 193 192 188 184 184 187 184 176 174 178 177 184 174 175 169 173 161 164 162 165 172 170 174 176 163 174 177 174 181 183 184 183 180 183 173 169 182 174 179 165 179 166 173 174 181 190 173 184 176 201 187 205 239 215 220 220 217 230 262 38 74 96 6 339 248 304 290 344
288 38 304 298 254 255 264 264 261 270 297 277 266 195 263 121 131 235 162 202 226 206 203 182 208 206 206 210 228 216 202 188 185 189 181 188 181 177 180 177 184 180 172 174 171 158 161 164 166 171 170 175 175 168 176 180 182 181 183 188 183 184 186 182 175 186 173 177 176 181 176 180 171 188 202 180 194 194 191 207 200 221 218 209 225 214 214 169 201 99 193 213 224 227 246 348 309
266 306 320 284 275 270 256 257 265 274 277 262 276 223 269 51 112 113 326 315 107 290 247 195 203 206 208 208 216 221 207 194 194 187 186 184 186 182 181 179 183 187 172 170 172 158 160 163 168 172 170 177 174 172 181 180 186 185 189 196 184 187 194 164 185 180 184 179 184 188 186 194 187 191 192 210 188 198 204 203 210 208 212 216 232 238 260 138 184 207 225 229 329 315 330 275 249
331 290 252 233 232 233 225 256 290 272 257 262 249 256 283 279 155 208 148 223 113 203 255 242 217 220 212 226 215 232 225 196 197 191 185 186 188 186 182 184 181 186 176 169 173 158 163 166 167 175 173 179 173 176 181 183 185 188 192 193 192 190 193 174 184 185 187 185 195 193 187 198 215 191 200 190 209 208 204 210 222 204 227 194 225 225 221 218 195 197 214 167 238 255 258 279 291
292 234 229 211 204 211 283 258 224 254 258 261 298 282 308 254 108 127 78 93 28 222 259 273 276 262 233 214 210 194 255 231 200 193 187 185 186 189 185 186 182 184 176 173 177 167 176 164 168 173 175 181 176 177 184 184 187 189 191 193 194 193 195 187 189 186 184 189 194 194 194 193 210 211 213 193 197 202 199 208 216 214 213 213 208 234 240 260 251 197 196 201 221 214 249 264 285
241 249 249 246 173 238 239 219 228 229 262 226 245 271 264 258 77 48 308 29 223 305 139 234 233 213 225 233 234 224 147 262 197 203 191 184 186 188 188 186 181 182 182 171 197 173 155 172 167 174 178 180 178 181 185 186 190 188 194 190 193 193 196 198 191 188 189 189 192 190 192 199 196 215 207 218 196 208 193 198 214 212 199 217 238 280 254 278 304 289 267 239 246 235 242 241 249
239 231 220 248 213 212 250 241 239 262 234 209 214 94 259 104 81 66 305 288 303 225 221 162 191 214 214 221 215 249 159 232 239 216 205 184 186 187 188 187 178 179 188 188 184 179 162 167 166 181 180 180 181 185 186 189 192 192 192 193 189 191 195 199 194 196 194 191 195 202 196 198 200 208 212 209 221 202 208 195 199 215 219 213 214 216 233 236 233 249 253 264 253 234 253 271 262
199 256 239 224 258 264 256 243 248 246 258 176 149 235 5 243 100 205 148 108 227 308 7 28 150 173 200 210 200 190 230 210 242 213 213 192 185 188 185 186 182 181 190 185 192 186 156 175 174 179 177 184 184 188 189 192 193 196 193 196 193 192 194 200 199 204 198 196 197 199 212 208 202 202 217 200 215 233 213 202 189 210 204 210 213 220 217 215 222 236 250 252 270 253 245 267 270
222 246 228 258 257 258 264 289 291 323 333 272 175 226 97 74 116 73 57 271 22 317 99 36 24 10 161 179 176 166 176 240 202 193 232 200 186 189 185 184 184 185 188 190 190 189 187 175 173 178 181 183 187 188 192 194 195 197 196 198 198 197 193 198 197 208 216 205 195 207 196 224 226 196 201 202 194 212 221 219 199 207 211 206 210 218 231 228 212 231 237 237 239 248 242 234 247
17 201 237 247 328 316 313 286 279 288 259 264 353 132 107 122 136 59 326 15 356 359 42 56 31 29 27 121 144 128 143 209 304 352 337 281 195 192 190 186 188 191 188 192 194 191 191 180 167 180 179 184 190 192 194 195 196 199 198 200 202 198 199 200 198 201 211 208 199 205 203 204 218 228 197 200 204 195 211 216 219 217 194 216 214 209 221 223 226 227 227 233 246 257 252 252 258
253 237 17 308 89 309 313 300 318 268 262 255 228 224 146 178 160 115 61 323 20 28 57 47 71 31 62 56 37 138 145 156 184 106 175 271 264 198 199 191 191 196 191 189 195 194 188 194 185 179 180 186 193 195 196 197 196 199 199 201 204 206 203 205 206 198 205 207 207 205 217 199 207 211 219 208 199 198 199 211 221 226 221 206 215 215 209 216 215 228 228 229 238 247 253 254 255
264 306 10 285 185 213 205 242 265 256 239 248 254 254 225 196 116 129 25 26 4 14 30 53 38 28 16 24 59 12 112 142 168 81 82 209 339 302 215 202 196 197 200 193 193 193 198 196 198 185 184 194 195 199 205 197 195 201 199 201 202 206 210 208 213 207 199 206 209 202 213 211 202 209 202 228 220 208 198 199 215 216 218 218 207 219 214 215 214 222 230 229 227 227 241 254 255
254 275 272 247 295 237 227 228 289 300 284 273 264 252 63 20 56 94 152 15 24 13 35 21 57 63 358 359 14 46 31 12 199 150 98 69 52 346 308 264 213 38 322 251 194 204 203 202 202 197 184 195 194 200 198 195 197 211 203 195 203 205 210 217 212 211 209 207 212 214 206 215 215 206 207 205 219 226 209 203 202 215 218 212 212 213 215 208 213 226 230 233 230 203 222 240 246
223 207 236 206 217 282 332 326 247 253 279 279 286 261 90 94 181 48 57 357 32 30 38 51 37 56 73 3 8 356 33 106 259 142 156 59 56 118 209 276 351 161 173 259 231 188 198 199 225 205 198 198 194 190 178 203 206 206 206 197 199 200 207 211 216 212 217 214 210 216 215 215 209 217 215 207 208 218 224 216 218 212 220 219 209 218 217 219 213 218 231 241 253 212 206 230 260
296 313 295 297 293 295 281 263 227 235 269 274 270 269 111 124 283 115 28 321 43 39 42 52 36 49 64 154 46 308 118 51 245 155 14 56 14 331 360 3 274 276 272 248 224 230 199 190 210 203 202 210 211 204 188 184 190 206 226 199 204 198 209 209 210 214 216 215 217 211 215 214 215 211 216 221 211 213 216 223 224 225 224 223 209 210 227 222 219 217 222 224 224 229 236 235 239